Location: El Limón
(10.3059°N, 67.6321°W)
Time: 12:53:25
(UTC+00:00)

YAOGAN 1 - Pass Details

Date: 14 April 2024
Orbit: 612 x 614 km, 97.8° (Epoch: 28 May)

Event Time Altitude Azimuth Distance (km) Brightness Sun altitude
Rises 00:10:18 0° 189° (S) 2,870 5.9 -22.2°
Reaches altitude 10° 00:12:44 10° 201° (SSW) 1,966 5.2 -22.8°
Maximum altitude 00:16:21 27° 260° (W) 1,178 4.6 -23.7°
Drops below altitude 10° 00:19:59 10° 318° (NW) 1,966 5.9 -24.5°
Sets 00:22:26 0° 331° (NNW) 2,870 6.6 -25.1°
